This is the latest recevied weather packets stored in our database for station/object KC5EZZ-2. If no packets are shown the sender has not sent any weather packets the latest 10 day(s).
| Time | Temp. | Humidity | Pressure | Rain* | Wind** | Luminosity | Snow |
|---|---|---|---|---|---|---|---|
| 1787851591 | 37.22° C | - | - | 0 mm | 2.68 m/s, 89° | - | - |
| 1787851291 | 37.22° C | - | - | 0 mm | 2.68 m/s, 111° | - | - |
| 1787851096 | 37.22° C | - | - | 0 mm | 2.68 m/s, 70° | - | - |
| 1787850989 | 37.22° C | - | - | 0 mm | 2.68 m/s, 70° | - | - |
| 1787829079 | 23.89° C | - | - | 0 mm | 0 m/s | - | - |
| 1787826959 | 24.44° C | - | - | 0 mm | 0 m/s | - | - |
| 1787826359 | 24.44° C | - | - | 0 mm | 0 m/s | - | - |
| 1787756811 | 36.67° C | - | - | 0 mm | 0 m/s | - | - |
| 1787755605 | 34.44° C | - | - | 0 mm | 0 m/s | - | - |
| 1787749258 | 28.33° C | - | - | 0 mm | 0 m/s | - | - |
| 1787747447 | 24.44° C | - | - | 0 mm | 0 m/s | - | - |
| 1787743217 | 24.44° C | - | - | 0 mm | 0 m/s | - | - |
| 1787728106 | 27.22° C | - | - | 0 mm | 0 m/s | - | - |
| 1787706678 | 37.22° C | - | - | 0 mm | 3.58 m/s, 121° | - | - |
| 1787706381 | 37.22° C | - | - | 0 mm | 2.68 m/s, 122° | - | - |
| 1787706084 | 37.22° C | - | - | 0 mm | 3.58 m/s, 113° | - | - |
| 1787705827 | 37.78° C | - | - | 0 mm | 3.13 m/s, 101° | - | - |
| 1787705779 | 37.78° C | - | - | 0 mm | 3.13 m/s, 101° | - | - |
| 1787705476 | 37.22° C | - | - | 0 mm | 3.13 m/s, 141° | - | - |
| 1787705176 | 37.78° C | - | - | 0 mm | 3.58 m/s, 93° | - | - |
| 1787704874 | 37.78° C | - | - | 0 mm | 4.02 m/s, 113° | - | - |
| 1787704574 | 38.33° C | - | - | 0 mm | 4.47 m/s, 111° | - | - |
| 1787704274 | 38.89° C | - | - | 0 mm | 3.13 m/s, 136° | - | - |
| 1787703971 | 38.89° C | - | - | 0 mm | 3.58 m/s, 124° | - | - |
| 1787703671 | 38.89° C | - | - | 0 mm | 3.58 m/s, 136° | - | - |
* Rain latest hour (hover to see other rain measurements)
** Current wind speed in m/s (hover to see current wind gust speed)